Location: Harmony
(28.2000°N, 81.1500°W)
Time: 05:05:10
(UTC-04:00)

SWIFT - Pass Details

Date: 18 December 2017
Orbit: 546 x 562 km, 20.6° (Epoch: 19 July)

Event Time Altitude Azimuth Distance (km) Brightness Sun altitude
Rises 19:20:35 0° 252° (WSW) 2,689 7.3 -23.2°
Reaches altitude 10° 19:23:04 10° 241° (WSW) 1,798 6.0 -23.7°
Maximum altitude 19:26:41 28° 181° (S) 1,028 3.8 -24.5°
Enters shadow 19:26:50 28° 176° (S) 1,030 3.7 -24.5°
